www.pogodaiklimat.ru

Погода и климат >> Архив погоды >> Южная Африка >> Langebaan


ПОГОДА в Langebaan

  • Прогноз погоды в Langebaan
  • Монитор погоды в Langebaan
  • Климат города

АРХИВ ПОГОДЫ в Langebaan

Время (UTC), дата Ветер
(напр.,м/с)
 
Видим.   Явления Облачность Т
(С)
Тd
(С)
f
(%)
Тe
(С)
Тes
(С)
Комфортность P
(гПа)
Po
(гПа)
Тmin
(С)
Tmax
(С)
R
(мм)
R24
(мм)
S
(см)
12 11.12 З 6 н/о н/о +27.6 +3.6 21 +26 +26 жарко 852.4 957.2 +11.9 +28.5
15 11.12 З 4 н/о н/о +27.5 +4.8 23 +26 +26 жарко 852.4 957.2 +26.8 +28.6
18 11.12 ЮЗ 2 н/о н/о +23.0 +6.9 35 +24 +24 комфорт 851.6 958.1 +22.9 +28.6
21 11.12 СЗ 2 н/о н/о +19.1 +7.6 47 +20 +20 852.2 960.2 +18.9 +28.6
00 12.12 ЮВ 1 н/о н/о +13.8 +7.6 66 +14 +14 849.8 959.7 +13.8 +28.6
03 12.12 С 1 н/о н/о +13.1 +7.1 67 +13 +13 849.8 960.0 +13.1 +28.6
06 12.12 СЗ 2 н/о н/о +16.8 +6.9 52 +17 +17 852.7 961.7 +12.9
09 12.12 З 4 н/о н/о +21.5 +6.7 38 +22 +22 комфорт 853.6 960.8 +12.9 +21.8
12 12.12 З 7 н/о н/о +24.3 +5.8 30 +24 +24 комфорт 854.3 960.4 +12.9 +24.3
15 12.12 З 6 н/о н/о +24.4 +7.3 33 +25 +25 комфорт 852.7 958.7 +23.8 +25.9
18 12.12 З 7 н/о н/о +20.3 +8.1 45 +21 +21 комфорт 851.8 959.3 +20.3 +25.9
21 12.12 ЮЗ 1 н/о н/о +17.2 +7.3 52 +18 +18 851.8 960.5 +17.2 +25.9
00 13.12 З 5 н/о н/о +15.3 +8.3 63 +14 +14 851.0 960.5 +15.1 +25.9
03 13.12 З 6 н/о н/о +13.7 +8.3 70 +12 +12 849.8 959.8 +13.6 +25.9
06 13.12 З 2 н/о н/о +16.2 +6.1 51 +17 +17 852.1 961.3 +13.5
09 13.12 З 4 н/о н/о +14.8 +7.1 60 +14 +14 852.6 962.4 +13.5 +17.0
12 13.12 СЗ 3 н/о н/о +15.2 +9.4 68 +15 +15 852.6 962.3 +13.5 +17.0
15 13.12 СВ 1 н/о н/о +13.8 +11.3 85 +14 +14 852.7 963.0 +13.7 +17.0
18 13.12 З 4 н/о н/о +14.7 +10.9 78 +13 +13 853.4 963.3 +13.6 +17.0 1
21 13.12 СЗ 3 н/о н/о +15.0 +11.0 77 +14 +14 855.5 965.5 +13.6 +17.0
00 14.12 В 1 н/о н/о +13.9 +10.9 82 +14 +14 854.3 964.7 +13.6 +17.0 1
03 14.12 В 1 н/о н/о +11.6 +10.0 90 +11 +11 853.9 965.2 +11.3 +17.0
06 14.12 СЗ 1 н/о н/о +16.7 +11.2 70 +18 +18 856.5 965.9 +10.7 1
09 14.12 СЗ 2 н/о н/о +21.2 +8.6 44 +22 +22 комфорт 857.8 965.4 +10.7 +21.2
12 14.12 З 6 н/о н/о +24.8 +8.5 35 +25 +25 комфорт 857.4 963.5 +10.7 +25.4
15 14.12 СЗ 4 н/о н/о +25.3 +5.2 27 +25 +25 комфорт 855.9 961.7 +24.7 +26.4
18 14.12 СВ 1 н/о н/о +22.1 +5.2 33 +22 +22 комфорт 855.6 962.7 +22.1 +26.4
21 14.12 ЮВ 1 н/о н/о +15.4 +8.2 62 +16 +16 854.1 963.8 +15.4 +26.4
00 15.12 В 1 н/о н/о +13.4 +7.2 66 +14 +14 852.7 963.1 +13.0 +26.4
03 15.12 ЮВ 1 н/о н/о +10.7 +7.0 78 +10 +10 851.7 963.1 +10.7 +26.4
06 15.12 штиль 0 н/о н/о +19.1 +7.9 48 +20 +20 855.3 963.6 +10.3
09 15.12 З 1 н/о н/о +28.7 +6.4 24 +28 +28 жарко 857.0 961.6 +10.3 +28.7
12 15.12 З 5 н/о н/о +32.9 +8.1 22 +32 +32 жарко 856.4 959.4 +10.3 +33.6
15 15.12 З 6 н/о н/о +31.0 +9.0 26 +30 +30 жарко 854.1 957.7 +31.0 +33.6
18 15.12 З 3 н/о н/о +27.5 +7.1 27 +27 +27 жарко 853.6 958.5 +27.5 +33.6
21 15.12 штиль 0 н/о н/о +19.0 +9.3 53 +20 +20 851.3 959.3 +19.0 +33.6
00 16.12 ЮВ 1 н/о н/о +15.8 +9.0 64 +17 +17 848.9 958.0 +15.3 +33.6
03 16.12 ЮВ 1 н/о н/о +14.2 +9.0 71 +15 +15 849.2 958.9 +14.0 +33.6
06 16.12 штиль 0 н/о н/о +19.9 +8.0 46 +21 +21 комфорт 853.2 961.0 +13.3
09 16.12 СЗ 2 н/о н/о +23.5 +9.3 40 +24 +24 комфорт 854.1 960.5 +13.3 +24.0
12 16.12 З 3 н/о н/о +29.1 +10.5 31 +29 +29 жарко 854.8 959.1 +13.3 +29.4
15 16.12 Ю 3 н/о н/о +30.0 +8.7 26 +29 +29 жарко 853.5 957.4 +28.0 +31.6
18 16.12 З 3 н/о н/о +24.8 +10.8 41 +26 +26 жарко 853.0 958.9 +24.8 +31.6
21 16.12 З 2 н/о н/о +21.0 +10.9 52 +24 +24 комфорт 853.6 961.0 +20.5 +31.6
00 17.12 СЗ 1 н/о н/о +19.0 +9.8 55 +21 +21 комфорт 852.9 961.0 +18.9 +31.6
03 17.12 штиль 0 н/о н/о +16.6 +8.8 60 +17 +17 851.6 960.6 +16.6 +31.6
06 17.12 З 1 н/о н/о +22.3 +9.9 45 +24 +24 комфорт 854.4 961.3 +16.6
09 17.12 В 2 н/о н/о +27.7 +10.2 33 +28 +28 жарко 855.4 960.3 +16.6 +27.8
12 17.12 ЮВ 2 н/о н/о +29.8 +10.6 30 +30 +30 жарко 854.3 958.3 +16.6 +30.0
15 17.12 Ю 4 н/о н/о +27.1 +11.4 38 +28 +28 жарко 852.8 957.8 +27.1 +30.2
18 17.12 Ю 2 н/о н/о +21.2 +10.8 51 +23 +23 комфорт 853.1 960.4 +20.9 +30.2
21 17.12 С 1 н/о н/о +17.5 +11.6 68 +19 +19 853.7 962.5 +17.5 +30.2
00 18.12 СЗ 2 н/о н/о +16.2 +11.2 72 +17 +17 852.6 961.8 +16.1 +30.2
03 18.12 СЗ 2 н/о н/о +16.2 +11.2 72 +17 +17 852.9 962.2 +16.1 +30.2
06 18.12 С 2 н/о н/о +19.2 +10.3 56 +21 +21 комфорт 855.8 964.1 +16.0
09 18.12 В 1 н/о н/о +24.8 +8.5 35 +25 +25 комфорт 858.6 964.8 +16.0 +25.5

 

Местоположение метеостанции Langebaan (Южная Африка): широта -33.08 долгота 18.02 высота над уровнем моря 6 м.

В архиве по умолчанию представлена погода в Langebaan за последнюю неделю. Архивные данные за месяц целиком и за предыдущие месяцы, начиная с января 2011 года, Вы можете получить, выбрав интересующий диапазон дат из раскрывающегося списка и нажав кнопку "Ввод!".

Внимание! Время в таблицах - всемирное. Для получения местного времени необходимо прибавить поправку, которая в Langebaan равна 2 ч.

Смотрите также архив погоды в соседних городах и на ближайших метеорологических станциях:

Погода в Geelbek (Южная Африка) (16 км)
Погода в Langebaanweg (Южная Африка) (19 км)
Погода в Cape Columbine (Южная Африка) (32 км)
Погода в Malmesbury (Южная Африка) (78 км)
Погода в Robben Island (Южная Африка) (86 км)
Погода в Table Bay (Южная Африка) (99 км)
Погода в Ysterplant (Южная Африка) (101 км)
Погода в Cape Town (Южная Африка) (102 км)
Погода в Cape Town Airport (Южная Африка) (112 км)
Погода в Cape Town Int Airport (Южная Африка) (112 км)

Пояснения к столбцам:

Ветер - указаны скорость ветра в м/с - средняя за 10 мин, порывы в срок и между сроками (в фигурных скобках) и направление, откуда дует ветер: С - северный, СВ - северо-восточный, В - восточный, ЮВ - юго-восточный, Ю - южный, ЮЗ - юго-западный, З - западный, СЗ - северо-западный.
Видимость - горизонтальная дальность видимости в метрах или километрах. При видимости от 1 до 10 км при отсутствии осадков обычно наблюдается дымка, при ухудшении видимости до 1 км и менее - туман. В сухую погоду видимость может ухудшаться дымом, пылью или мглою.
Явления - указаны атмосферные явления, наблюдавшиеся в срок или в последний час перед сроком; фигурными скобками обозначены явления, наблюдавшиеся между сроками (за 1-3 часа до срока); квадратными скобками обозначены град или гололедные отложения с указанием их диаметра в мм.
Облачность - указаны через наклонную черту общая и нижняя облачность в баллах и высота нижней границы облаков в метрах; квадратными скобками обозначены формы облаков: Ci - перистые, Cs - перисто-слоистые, Cc - перисто-кучевые, Ac - высококучевые, As - высокослоистые, Sc - слоисто-кучевые, Ns - слоисто-дождевые, Cu - кучевые, Cb - кучево-дождевые. Подробнее классификацию облаков см. в Атласе облаков (PDF).
T - Температура воздуха - температура, измеренная на высоте 2 м над землей.
Td - Температура точки росы - температура, при понижении до которой содержащийся в воздухе водяной пар достигнет насыщения.
f - Относительная влажность воздуха - влажноcть воздуха, измеренная на высоте 2 м над землей.
Te - Эффективная температура - температура, которую ощущает одетый по сезону человек в тени. Характеристика душности погоды. При расчете учитывается влияние влажности воздуха и скорости ветра на теплоощущения человека.
Tes - Эффективная температура на солнце - температура, которую ощущает человек, с поправкой на солнечный нагрев. Характеристика знойности погоды. Зависит от высоты солнца над горизонтом, облачности и скорости ветра. Ночью, в пасмурную погоду, а также при ветре 12 м/с и более поправка равна нулю.
P - Атмосферное давление - приведенное к уровню моря атмосферное давление.
Po - Атмосферное давление - измеренное на уровне метеостанции атмосферное давление.
Tmin - Минимальная температура - минимум температуры воздуха на высоте 2 м над землей.
Tmax - Максимальная температура - максимум температуры воздуха на высоте 2 м над землей.
R - Количество осадков - Количество выпавших осадков за период времени, мм. При наведении курсора мыши на число - период времени, за который выпало указанное количество осадков.
R24 - Количество осадков - Количество выпавших осадков за 24 часа, мм.
S - Снежный покров - Высота снежного покрова, см. При наведении курсора мыши на число - состояние снежного покрова и степень покрытия местности в баллах.